Regional Weather Roundup
Issued by NWS

Home | Current Version | Previous Version | Graphics & Text | Print | Product List | Glossary On
Versions: 1 2 3 4 5 6 7 8 9 10 11 12 13 14 15 16 17 18 19 20 21 22 23 24 25 26 27 28 29 30 31 32 33 34 35 36 37 38 39 40 41 42 43 44 45 46 47 48 49 50
000
ASUS44 KMEG 182010
RWRTN
TENNESSEE HOURLY STATE WEATHER ROUNDUP
NATIONAL WEATHER SERVICE MEMPHIS TN
300 PM CDT THU SEP 18 2014

TNZ002-004-019-021-049-052-054-088>092-182100-
WEST TENNESSEE

CITY           SKY/WX    TMP DP  RH WIND       PRES   REMARKS
MEMPHIS INTL   PTSUNNY   80  67  64 NE14      29.92F
NWS MEMPHIS      N/A     77 N/A N/A MISG        N/A
JACKSON        CLOUDY    72  62  71 E9        29.96F
DYERSBURG      CLOUDY    68  55  64 E3        29.98F
UNION CITY     SUNNY     72  59  64 E6        29.97F
PARIS          SUNNY     72  57  60 NE9       29.99F
HUNTINGDON     CLOUDY    71  59  66 NE7       29.98F
LEXINGTON      CLOUDY    70  64  83 CALM      29.97F
SAVANNAH       CLOUDY    66  66 100 NE6       29.97F
$$

TNZ008-025-027-028-033-062-065-066-182100-
NORTH MIDDLE TENNESSEE

CITY           SKY/WX    TMP DP  RH WIND       PRES   REMARKS
NASHVILLE      CLOUDY    77  57  50 N6        29.99F
DICKSON        CLOUDY    72  57  60 E3        30.00F
PORTLAND       MOSUNNY   73  55  53 VRB3      30.00F
CLARKSVILLE    CLOUDY    75  56  51 NE6       29.99F
LEBANON        CLOUDY    76  54  46 N5        29.98F
SMYRNA         PTSUNNY   78  56  46 N7        29.99F
MURFREESBORO   CLOUDY    76  55  47 NE6       29.98F
COOKEVILLE     SUNNY     79  61  53 NW3       29.99F
LIVINGSTON     PTSUNNY   73  56  55 NE5       30.02
GALLATIN       CLOUDY    78  60  53 CALM      30.00F
CROSSVILLE     PTSUNNY   75  53  46 VRB3      30.02F
$$

TNZ061-075-076-078-094-096-097-182100-
SOUTH MIDDLE TENNESSEE

CITY           SKY/WX    TMP DP  RH WIND       PRES   REMARKS
LEWISBURG      CLOUDY    78  58  50 N5        29.98F
FAYETTEVILLE   MOSUNNY   75  57  53 NE5       29.97F
TULLAHOMA      MOSUNNY   79  52  38 CALM      29.99F
WINCHESTER     MOSUNNY   81  54  39 N7        29.97F
MCMINNVILLE    SUNNY     79  55  44 NE8       29.99F
COLUMBIA       PTSUNNY   77  61  57 E5        29.97S
SHELBYVILLE    PTSUNNY   82  57  42 CALM      29.98F
$$

TNZ017-018-042-046-047-182100-
NORTHEAST TENNESSEE

CITY           SKY/WX    TMP DP  RH WIND       PRES   REMARKS
TRI CITIES     PTSUNNY   77  52  41 N7        30.01F
ELIZABETHTON   MOCLDY    73  54  49 NW5       30.01F
$$

TNZ012-013-036-069-073-074-182100-
CENTRAL EAST TENNESSEE

CITY           SKY/WX    TMP DP  RH WIND       PRES   REMARKS
KNOXVILLE      CLOUDY    78  55  44 E7        29.97F
OAK RIDGE      PTSUNNY   79  53  40 CALM      30.00F
GATLINBURG     CLEAR     75  55  50 N5        29.98S
MORRISTOWN     CLEAR     73  52  46 N5        30.01F
$$

TNZ083-085-099-182100-
SOUTHEAST TENNESSEE

CITY           SKY/WX    TMP DP  RH WIND       PRES   REMARKS
CHATTANOOGA    MOSUNNY   82  49  31 N7        29.97F
$$

SKY/WX REPORTED AS FAIR MEANS FEW OR NO CLOUDS BELOW
12 THOUSAND FEET.




USA.gov is the U.S. government's official web portal to all federal, state and local government web resources and services.